This is the latest recevied weather packets stored in our database for station/object WA0GMH-1. If no packets are shown the sender has not sent any weather packets the latest 10 day(s).
| Time | Temp. | Humidity | Pressure | Rain* | Wind** | Luminosity | Snow |
|---|---|---|---|---|---|---|---|
| 1778173735 | 16.11° C | 72% | 1011.1 hPa | 0 mm | - | - | - |
| 1778173332 | 16.11° C | 75% | 1011.1 hPa | 0 mm | - | - | - |
| 1778172930 | 15.56° C | 75% | 1011.2 hPa | 0 mm | - | - | - |
| 1778172528 | 15.56° C | 75% | 1011.2 hPa | 0 mm | - | - | - |
| 1778172126 | 15° C | 76% | 1011.3 hPa | 0 mm | - | - | - |
| 1778171723 | 15° C | 78% | 1011.1 hPa | 0 mm | - | - | - |
| 1778171321 | 14.44° C | 76% | 1011.2 hPa | 0 mm | - | - | - |
| 1778170919 | 14.44° C | 79% | 1011.2 hPa | 0 mm | - | - | - |
| 1778170517 | 13.89° C | 79% | 1011.1 hPa | 0 mm | - | - | - |
| 1778170114 | 13.89° C | 80% | 1011.1 hPa | 0 mm | - | - | - |
| 1778169712 | 13.33° C | 81% | 1011.1 hPa | 0 mm | - | - | - |
| 1778169310 | 13.33° C | 81% | 1011.1 hPa | 0 mm | - | - | - |
| 1778168908 | 12.78° C | 82% | 1011.1 hPa | 0 mm | - | - | - |
| 1778168505 | 12.78° C | 85% | 1011.2 hPa | 0 mm | - | - | - |
| 1778168103 | 12.22° C | 100% | 1011.1 hPa | 0 mm | - | - | - |
| 1778167701 | 12.22° C | 100% | 1010.8 hPa | 0 mm | - | - | - |
| 1778167299 | 11.67° C | 100% | 1011 hPa | 0 mm | - | - | - |
| 1778166896 | 11.67° C | 1% | 1010.9 hPa | 0 mm | - | - | - |
| 1778166494 | 11.11° C | 2% | 1010.8 hPa | 0 mm | - | - | - |
| 1778166092 | 11.11° C | 3% | 1010.8 hPa | 0 mm | - | - | - |
| 1778165690 | 10.56° C | 4% | 1010.8 hPa | 0 mm | - | - | - |
| 1778165287 | 10.56° C | 6% | 1010.7 hPa | 0 mm | - | - | - |
| 1778164885 | 10° C | 8% | 1010.7 hPa | 0 mm | - | - | - |
| 1778164483 | 10° C | 8% | 1010.8 hPa | 0 mm | - | - | - |
| 1778164081 | 9.44° C | 10% | 1010.7 hPa | 0 mm | - | - | - |
* Rain since midnight (hover to see other rain measurements)
** Current wind speed in m/s (hover to see current wind gust speed)